Ithaca, NY

2:33 AM EDT on April 29, 2017 (GMT -0400)
Tompkins County

Weather History for KITH - February, 2014

Change the Weather History Date:

Friday, February 7, 2014

  Actual Average Record
Temperature  
Mean Temperature 12 °F -  
Max Temperature 23 °F 27 °F 50 °F (2002)
Min Temperature 0 °F 10 °F -14 °F (1988)
Degree Days  
Heating Degree Days 54    
Moisture  
Dew Point 3 °F    
Average Humidity 68    
Maximum Humidity 88    
Minimum Humidity 39    
Precipitation  
Precipitation 0.00 in - - ()
Sea Level Pressure  
Sea Level Pressure 30.25 in    
Wind  
Wind Speed 5 mph (West)    
Max Wind Speed 14 mph    
Max Gust Speed -    
Visibility 10 miles    
Events Snow    
Averages and records for this station are not official NWS values.
T = Trace of Precipitation, MM = Missing Value Source: NWS Daily Summary

Daily Weather History Graph

Daily Weather History Graph

Search for Another Location

Airport or City:

Trip Planner

Search our weather history database for the weather conditions in past years. The results will help you decide how hot, cold, wet, or windy it might be!

Date:

Astronomy

Feb. 07, 2014 Rise Set
Actual Time 7:12 AM EST 5:27 PM EST
Civil Twilight 6:43 AM EST 5:56 PM EST
Nautical Twilight 6:10 AM EST 6:30 PM EST
Astronomical Twilight 5:37 AM EST 7:03 PM EST
Moon 11:36 AM EST (2/7) 1:27 AM EST (2/7)
Length of Visible Light 11h 13m
Length of Day
10h 14m
First Quarter, 59% of the Moon is Illuminated
Feb 7
First Quarter
Feb 14
Full
Feb 22
Last Quarter
Mar 1
New
Mar 8
First Quarter

Hourly Weather History & Observations

Time (EST) Temp. Windchill Dew Point Humidity Pressure Visibility Wind Dir Wind Speed Gust Speed Precip Events Conditions
12:56 AM 8.1 °F - 4.1 °F 84% 30.24 in 10.0 mi Calm Calm - 0.00 in Snow Light Snow
1:56 AM 6.1 °F -0.9 °F 3.0 °F 87% 30.23 in 10.0 mi South 3.5 mph - 0.00 in   Overcast
2:56 AM 12.0 °F 1.5 °F 7.2 °F 81% 30.22 in 10.0 mi SW 6.9 mph - N/A   Overcast
3:09 AM 12.2 °F 2.9 °F 6.8 °F 79% 30.15 in 10.0 mi SW 5.8 mph - 0.00 in Snow Light Snow
3:31 AM 12.2 °F 2.9 °F 6.8 °F 79% 30.15 in 10.0 mi SSW 5.8 mph - 0.00 in   Mostly Cloudy
3:56 AM 14.0 °F 3.9 °F 8.1 °F 77% 30.23 in 10.0 mi SSW 6.9 mph - 0.00 in   Overcast
4:36 AM 12.2 °F 1.7 °F 8.6 °F 85% 30.18 in 8.0 mi WNW 6.9 mph - 0.00 in Snow Light Snow
4:56 AM 12.0 °F 4.1 °F 9.1 °F 88% 30.25 in 4.0 mi North 4.6 mph - 0.00 in Snow Light Snow
5:56 AM 12.0 °F -3.4 °F 6.1 °F 77% 30.27 in 10.0 mi WNW 13.8 mph - 0.00 in Snow Light Snow
6:25 AM 10.4 °F -1.5 °F 5.0 °F 79% 30.21 in 10.0 mi NW 8.1 mph - 0.00 in Snow Light Snow
6:56 AM 9.1 °F -1.9 °F 4.1 °F 80% 30.29 in 10.0 mi WNW 6.9 mph - 0.00 in   Mostly Cloudy
7:23 AM 6.8 °F -0.1 °F 3.2 °F 85% 30.22 in 10.0 mi North 3.5 mph - N/A   Scattered Clouds
7:56 AM 5.0 °F - 1.0 °F 84% 30.31 in 10.0 mi Calm Calm - N/A   Partly Cloudy
8:56 AM 9.1 °F 2.6 °F 2.1 °F 73% 30.32 in 10.0 mi North 3.5 mph - N/A   Clear
9:56 AM 13.1 °F - 3.0 °F 64% 30.32 in 10.0 mi Calm Calm - N/A   Clear
10:56 AM 16.2 °F - 4.1 °F 59% 30.31 in 10.0 mi Calm Calm - N/A   Clear
11:56 AM 20.1 °F 11.3 °F 4.1 °F 50% 30.28 in 10.0 mi WSW 6.9 mph - N/A   Clear
12:56 PM 21.0 °F 10.6 °F 3.0 °F 46% 30.24 in 10.0 mi West 9.2 mph - N/A   Partly Cloudy
1:56 PM 22.1 °F 12.0 °F 4.1 °F 46% 30.22 in 10.0 mi WSW 9.2 mph - N/A   Mostly Cloudy
2:56 PM 23.0 °F 12.4 °F 2.1 °F 41% 30.21 in 10.0 mi West 10.4 mph - N/A   Overcast
3:56 PM 23.0 °F 13.1 °F 3.0 °F 42% 30.22 in 10.0 mi West 9.2 mph - N/A   Overcast
4:56 PM 23.0 °F 12.4 °F 1.0 °F 39% 30.23 in 10.0 mi West 10.4 mph - N/A   Overcast
5:56 PM 18.1 °F 6.3 °F 3.0 °F 52% 30.26 in 10.0 mi NNW 10.4 mph - N/A   Mostly Cloudy
6:56 PM 13.1 °F 4.0 °F -0.9 °F 54% 30.29 in 10.0 mi NNW 5.8 mph - N/A   Clear
7:56 PM 6.1 °F - -1.8 °F 70% 30.31 in 10.0 mi Calm Calm - N/A   Clear
8:56 PM 4.1 °F - -1.8 °F 76% 30.31 in 10.0 mi Calm Calm - N/A   Clear
9:56 PM -0.9 °F - -6.0 °F 79% 30.31 in 10.0 mi Calm Calm - N/A   Clear
10:56 PM 10.0 °F 1.8 °F -2.9 °F 56% 30.30 in 10.0 mi WSW 4.6 mph - N/A   Clear
11:56 PM 3.0 °F -4.4 °F -6.9 °F 63% 30.30 in 10.0 mi West 3.5 mph - N/A   Clear